Location: Foligno
(42.9600°N, 12.7050°E)
Time: 17:40:53
(UTC+02:00)

ISS - Pass Details

Date: 30 May 2020
Orbit: 417 x 420 km, 51.6° (Epoch: 26 May)

Event Time Altitude Azimuth Distance (km) Brightness Sun altitude
Rises 21:34:44 0° 305° (NW) 2,366 2.4 -8.8°
Reaches altitude 10° 21:36:54 10° 312° (NW) 1,500 0.8 -9.1°
Maximum altitude 21:40:08 42° 26° (NNE) 606 -2.8 -9.6°
Enters shadow 21:43:15 11° 99° (E) 1,460 -1.5 -10.0°
